1485536401.15,33096,12.19,73928.0,-3.99,-34.65,-34.95,0,*53
1485536402.39,33097,12.19,73928.0,-3.99,-34.77,-34.95,0,*51
1485536403.64,33098,12.19,73928.3,-4.01,-34.71,-34.89,0,*53
1485536404.9,33099,12.19,73928.8,-3.99,-34.65,-34.83,0,*5B
1485536406.13,33100,12.19,73930.3,-3.99,-34.77,-35.01,0,*52
1485536407.35,33101,12.19,73928.8,-3.99,-34.59,-34.77,0,*5F
1485536408.57,33102,12.19,73928.0,-3.99,-34.77,-34.77,0,*50
1485536409.8,33103,12.19,73930.5,-3.99,-34.77,-35.01,0,*51
1485536411.07,33104,12.19,73928.3,-3.99,-34.65,-34.95,0,*59
1485536412.34,33105,12.19,73928.0,-3.99,-34.65,-34.83,0,*5F
1485536413.56,33106,12.19,73928.5,-3.99,-34.77,-35.01,0,*54
1485536414.83,33107,12.19,73930.5,-3.99,-34.65,-34.95,0,*5A
1485536416.06,33108,12.19,73928.5,-3.99,-34.59,-34.77,0,*56
1485536417.31,33109,12.19,73930.8,-3.97,-34.47,-34.77,0,*56
1485536418.58,33110,12.19,73930.0,-3.97,-34.59,-34.83,0,*5A
1485536419.88,33111,12.19,73928.8,-3.97,-34.65,-34.95,0,*53
1485536421.15,33112,12.19,73926.0,-3.97,-34.83,-35.13,0,*57
1485536422.45,33113,12.19,73932.3,-3.97,-34.65,-34.95,0,*51
1485536423.72,33114,12.19,73930.0,-3.97,-34.77,-34.95,0,*55
1485536425.02,33115,12.19,73928.8,-3.97,-34.65,-34.83,0,*50
1485536426.27,33116,12.19,73930.0,-3.97,-34.59,-34.77,0,*57
1485536427.56,33117,12.19,73928.8,-3.97,-34.65,-34.83,0,*52
1485536428.83,33118,12.19,73930.5,-3.97,-34.95,-35.17,0,*5E
1485536430.1,33119,12.19,73930.0,-3.97,-34.77,-34.83,0,*5F
1485536431.35,33120,12.19,73928.8,-3.95,-34.71,-34.95,0,*56
1485536432.59,33121,12.19,73934.0,-3.99,-34.77,-34.95,0,*5D
1485536433.82,33122,12.19,73930.0,-3.99,-34.77,-35.01,0,*52
1485536435.04,33123,12.19,73930.5,-3.99,-34.77,-35.01,0,*53
1485536436.29,33124,12.19,73930.0,-3.99,-34.95,-35.13,0,*5B
1485536437.5,33125,12.19,73934.5,-3.99,-34.89,-35.17,0,*53
1485536438.76,33126,12.19,73932.0,-3.99,-34.83,-34.83,0,*56
1485536439.99,33127,12.19,73930.0,-3.99,-34.77,-35.13,0,*54
1485536441.26,33128,12.19,73926.3,-3.97,-34.83,-35.13,0,*5E
1485536442.53,33129,12.19,73932.0,-3.97,-34.83,-35.01,0,*5C
1485536443.8,33130,12.19,73930.8,-3.99,-34.65,-34.83,0,*59
1485536445.07,33131,12.19,73928.3,-3.97,-34.83,-35.17,0,*52
1485536446.34,33132,12.19,73928.3,-3.97,-34.83,-35.13,0,*55
1485536447.59,33133,12.19,73928.5,-3.99,-34.77,-34.95,0,*5E
1485536448.84,33134,12.19,73930.3,-3.99,-34.77,-34.95,0,*59
1485536450.13,33135,12.19,73930.8,-4.01,-34.83,-35.07,0,*5F
1485536451.39,33136,12.19,73930.8,-4.01,-34.89,-35.07,0,*56
1485536452.66,33137,12.19,73934.3,-3.99,-34.83,-34.95,0,*51
1485536453.9,33138,12.19,73930.3,-3.99,-34.77,-34.83,0,*52
1485536455.15,33139,12.19,73928.3,-3.99,-34.77,-34.95,0,*54
1485536456.39,33140,12.19,73932.5,-3.99,-34.95,-35.17,0,*5D
1485536457.66,33141,12.19,73928.5,-3.99,-34.83,-34.95,0,*50
1485536458.93,33142,12.19,73928.8,-3.97,-34.83,-35.17,0,*56
1485536460.2,33143,12.19,73930.5,-3.99,-34.65,-34.95,0,*5A
1485536461.45,33144,12.19,73928.5,-3.99,-34.83,-35.17,0,*5E
1485536462.69,33145,12.19,73928.3,-3.99,-34.83,-35.01,0,*58
1485536463.94,33146,12.19,73930.3,-3.99,-34.77,-34.95,0,*5C
1485536465.19,33147,12.19,73930.0,-3.99,-34.77,-34.95,0,*5D
1485536466.41,33148,12.19,73930.3,-3.99,-34.77,-35.13,0,*5D
1485536467.63,33149,12.19,73930.0,-3.99,-34.77,-35.01,0,*5F
1485536468.88,33150,12.19,73928.0,-3.99,-34.77,-34.95,0,*5B
1485536470.13,33151,12.19,73930.5,-3.99,-34.77,-34.95,0,*5A
1485536471.37,33152,12.19,73930.8,-3.99,-34.77,-34.83,0,*5E
1485536472.61,33153,12.19,73928.5,-3.99,-34.59,-34.83,0,*53
1485536473.84,33154,12.19,73930.0,-3.99,-34.77,-35.01,0,*53
1485536475.08,33155,12.19,73934.8,-3.99,-34.77,-34.95,0,*5E
1485536476.33,33156,12.19,73928.8,-3.97,-34.77,-35.01,0,*5F
1485536477.58,33157,12.19,73928.0,-3.95,-34.71,-34.95,0,*56
1485536478.85,33158,12.19,73930.8,-3.97,-34.83,-35.17,0,*5D
1485536480.12,33159,12.19,73930.8,-3.97,-34.83,-35.17,0,*5C
1485536481.37,33160,12.19,73932.3,-3.97,-34.77,-35.01,0,*5A
1485536482.62,33161,12.19,73932.5,-3.97,-34.77,-35.01,0,*5B
1485536483.86,33162,12.19,73928.8,-3.99,-34.95,-35.17,0,*5D
1485536485.13,33163,12.19,73926.8,-3.97,-34.83,-35.13,0,*51
1485536486.4,33164,12.19,73928.3,-3.97,-34.95,-35.17,0,*55
1485536487.68,33165,12.19,73928.5,-3.97,-35.01,-35.41,0,*5B
1485536488.93,33166,12.19,73928.5,-3.99,-34.95,-35.29,0,*54
1485536490.17,33167,12.19,73928.0,-3.99,-35.01,-35.41,0,*57
1485536491.44,33168,12.19,73928.0,-3.97,-35.13,-35.41,0,*55
1485536492.72,33169,12.19,73926.5,-3.97,-34.95,-35.29,0,*55
1485536493.96,33170,12.19,73930.3,-3.99,-34.95,-35.17,0,*5E
1485536495.21,33171,12.19,73928.0,-3.99,-34.83,-35.29,0,*55
1485536496.48,33172,12.19,73930.0,-3.97,-34.83,-35.13,0,*51
1485536497.76,33173,12.19,73928.8,-3.97,-34.83,-35.01,0,*53
1485536499.01,33174,12.19,73928.0,-4.01,-34.89,-35.23,0,*56
1485536500.29,33175,12.19,73930.8,-3.99,-34.95,-35.41,0,*58
1485536501.52,33176,12.19,73928.8,-3.99,-35.13,-35.41,0,*54
1485536502.77,33177,12.19,73930.8,-3.99,-34.95,-35.17,0,*59
1485536504.04,33178,12.19,73928.8,-3.97,-34.95,-35.29,0,*55
1485536505.29,33179,12.19,73928.3,-3.99,-34.83,-35.13,0,*54
1485536506.51,33180,12.19,73930.8,-3.99,-34.77,-35.01,0,*5A
1485536507.74,33181,12.19,73930.3,-3.99,-34.77,-35.01,0,*5B
1485536508.98,33182,12.19,73930.5,-3.99,-34.95,-35.17,0,*53
1485536510.22,33183,12.19,73928.0,-3.99,-34.83,-35.17,0,*55
1485536511.44,33184,12.19,73926.8,-3.99,-35.01,-35.17,0,*59
1485536512.68,33185,12.19,73928.3,-3.99,-34.95,-35.17,0,*54
1485536513.91,33186,12.19,73928.5,-3.99,-34.77,-35.01,0,*5C
1485536515.15,33187,12.19,73928.8,-3.99,-34.59,-34.83,0,*5A
1485536516.4,33188,12.19,73928.5,-3.99,-34.77,-34.95,0,*5E
1485536517.67,33189,12.19,73928.5,-3.99,-34.65,-34.83,0,*5B
1485536518.93,33190,12.19,73928.8,-4.01,-34.83,-34.89,0,*57
1485536520.18,33191,12.19,73930.3,-3.99,-34.77,-34.95,0,*56
1485536521.4,33192,12.19,73924.8,-3.99,-35.01,-35.17,0,*5E
1485536522.64,33193,12.19,73932.0,-3.99,-34.83,-35.01,0,*53
1485536523.87,33194,12.19,73928.5,-3.99,-34.77,-35.01,0,*5F
1485536525.11,33195,12.19,73928.5,-3.99,-34.83,-35.13,0,*56
1485536526.38,33196,12.19,73930.0,-3.99,-34.83,-34.95,0,*5A
1485536527.6,33197,12.19,73926.5,-3.99,-35.13,-35.29,0,*55
1485536528.84,33198,12.19,73928.3,-3.99,-35.17,-35.41,0,*50
1485536530.11,33199,12.19,73928.0,-3.99,-34.95,-35.41,0,*5A
1485536531.36,33200,12.19,73928.3,-3.99,-34.95,-35.47,0,*5F
1485536532.61,33201,12.19,73928.8,-3.99,-34.95,-35.29,0,*56
1485536533.85,33202,12.19,73928.3,-3.99,-35.13,-35.41,0,*54
1485536535.09,33203,12.19,73928.3,-3.99,-35.29,-35.41,0,*5C
1485536536.36,33204,12.19,73928.5,-4.01,-35.07,-35.47,0,*57
1485536537.62,33205,12.19,73928.0,-4.01,-34.89,-35.23,0,*53
1485536538.88,33206,12.19,73926.3,-4.01,-34.89,-35.35,0,*57
1485536540.14,33207,12.19,73928.0,-4.01,-35.17,-35.35,0,*50
1485536541.38,33208,12.19,73930.5,-4.01,-35.17,-35.47,0,*5A
1485536542.6,33209,12.19,73930.0,-3.99,-35.01,-35.29,0,*52
1485536543.87,33210,12.19,73930.8,-4.01,-35.07,-35.47,0,*52
1485536545.16,33211,12.19,73928.5,-4.01,-35.07,-35.23,0,*51
1485536546.41,33212,12.19,73928.8,-4.03,-35.07,-35.47,0,*52
1485536547.65,33213,12.19,73928.0,-4.03,-35.07,-35.47,0,*53
1485536548.92,33214,12.19,73928.8,-3.99,-34.95,-35.41,0,*5C
1485536550.19,33215,12.19,73926.8,-4.05,-35.07,-35.41,0,*55
1485536551.43,33216,12.19,73928.0,-4.01,-34.89,-35.17,0,*56
1485536552.72,33217,12.19,73928.8,-4.01,-34.83,-35.07,0,*5C
1485536553.95,33218,12.19,73930.5,-4.01,-34.89,-35.17,0,*58
1485536555.22,33219,12.19,73932.3,-4.01,-34.89,-35.07,0,*58
1485536556.42,33220,12.19,73930.8,-4.03,-34.89,-35.17,0,*51
1485536557.7,33221,12.19,73928.3,-4.01,-34.83,-35.17,0,*58
1485536558.95,33222,12.19,73928.3,-4.01,-34.89,-35.23,0,*56
1485536560.21,33223,12.19,73930.0,-4.01,-34.89,-35.07,0,*51
1485536561.47,33224,12.19,73930.3,-4.01,-34.89,-35.07,0,*56
1485536562.73,33225,12.19,73928.8,-4.01,-34.89,-35.23,0,*51
1485536564.0,33226,12.19,73930.5,-4.01,-35.07,-35.47,0,*57
1485536565.26,33227,12.19,73930.5,-4.01,-34.83,-35.17,0,*5E
1485536566.52,33228,12.19,73932.5,-4.01,-34.89,-35.23,0,*5C
1485536567.76,33229,12.19,73924.3,-4.01,-34.89,-35.17,0,*5A
1485536569.05,33230,12.19,73928.5,-4.01,-34.83,-35.07,0,*59
1485536570.34,33231,12.19,73928.8,-4.01,-34.83,-35.23,0,*5E
1485536571.57,33232,12.19,73926.8,-4.01,-34.89,-35.17,0,*50
1485536572.81,33233,12.19,73928.0,-4.01,-35.01,-35.17,0,*50
1485536574.05,33234,12.19,73928.8,-4.03,-35.23,-35.47,0,*50
1485536575.29,33235,12.19,73926.5,-4.03,-35.01,-35.23,0,*53
1485536576.5,33236,12.19,73928.3,-4.03,-34.89,-35.17,0,*56
1485536577.72,33237,12.19,73928.0,-4.05,-35.13,-35.29,0,*5E
1485536578.93,33238,12.19,73930.0,-4.03,-35.17,-35.47,0,*5B
1485536580.16,33239,12.19,73928.0,-4.03,-34.89,-35.23,0,*5E
1485536581.39,33240,12.19,73932.3,-4.03,-34.89,-35.23,0,*50
1485536582.63,33241,12.19,73928.0,-4.03,-35.01,-35.23,0,*50
1485536583.87,33242,12.19,73928.8,-4.03,-34.89,-35.07,0,*54
1485536585.11,33243,12.19,73932.0,-4.03,-34.83,-35.17,0,*5E
1485536586.32,33244,12.19,73930.8,-4.03,-35.01,-35.17,0,*52
1485536587.57,33245,12.19,73924.5,-4.05,-34.95,-35.13,0,*5D
1485536588.81,33246,12.19,73930.5,-4.05,-34.89,-35.07,0,*56
1485536590.05,33247,12.19,73930.3,-4.03,-34.83,-35.01,0,*5D
1485536591.3,33248,12.19,73928.0,-4.05,-34.95,-35.13,0,*50
1485536592.55,33249,12.19,73926.3,-4.05,-35.07,-35.29,0,*52
1485536593.82,33250,12.19,73928.8,-4.05,-34.95,-35.23,0,*5A
1485536595.06,33251,12.19,73924.5,-4.05,-34.89,-35.07,0,*50
1485536596.31,33252,12.19,73932.8,-4.05,-34.77,-34.95,0,*58
1485536597.55,33253,12.19,73930.8,-4.03,-34.65,-35.01,0,*50
1485536598.78,33254,12.19,73930.3,-4.03,-34.71,-35.01,0,*52
1485536599.99,33255,12.19,73930.3,-4.03,-34.89,-35.01,0,*54
1485536601.26,33256,12.19,73928.8,-4.03,-34.83,-35.07,0,*5B
1485536602.51,33257,12.19,73930.5,-4.05,-34.95,-35.29,0,*57
1485536603.71,33258,12.19,73928.8,-4.03,-34.89,-35.17,0,*5E
1485536604.95,33259,12.19,73932.5,-4.03,-34.83,-35.17,0,*55
1485536606.17,33260,12.19,73928.0,-4.05,-34.89,-35.17,0,*53
1485536607.43,33261,12.19,73930.8,-4.03,-34.83,-35.07,0,*5F
1485536608.69,33262,12.19,73928.8,-4.01,-34.89,-35.23,0,*52
1485536609.9,33263,12.19,73928.8,-4.03,-34.89,-35.17,0,*56
1485536611.12,33264,12.19,73930.8,-4.03,-34.71,-35.01,0,*51
1485536612.34,33265,12.19,73930.0,-4.03,-34.71,-35.01,0,*50
1485536613.61,33266,12.19,73926.8,-4.03,-34.83,-35.07,0,*58
1485536614.83,33267,12.19,73928.3,-4.05,-34.89,-35.13,0,*50
1485536616.09,33268,12.19,73924.5,-4.03,-34.83,-35.07,0,*56
1485536617.34,33269,12.19,73928.3,-4.05,-34.83,-35.13,0,*54
1485536618.6,33270,12.19,73928.5,-4.03,-34.83,-35.23,0,*59
1485536619.84,33271,12.19,73928.3,-4.01,-35.01,-35.17,0,*56
1485536621.07,33272,12.19,73932.3,-4.03,-34.89,-35.07,0,*57
1485536622.31,33273,12.19,73934.0,-4.03,-34.65,-34.89,0,*53
1485536623.52,33274,12.19,73928.0,-4.03,-34.89,-35.17,0,*50
1485536624.77,33275,12.19,73930.8,-4.05,-35.07,-35.29,0,*5D
1485536625.99,33276,12.19,73928.5,-4.03,-34.89,-35.01,0,*55
1485536627.23,33277,12.19,73928.0,-4.03,-34.83,-35.01,0,*5E
1485536628.5,33278,12.19,73928.8,-4.03,-34.83,-35.07,0,*57
1485536629.72,33279,12.19,73928.0,-4.03,-34.71,-35.01,0,*5D
1485536630.94,33280,12.19,73926.3,-4.05,-34.89,-35.29,0,*50
1485536632.2,33281,12.19,73928.3,-4.03,-35.07,-35.35,0,*5D
1485536633.44,33282,12.19,73928.8,-4.03,-34.89,-35.07,0,*58
1485536634.68,33283,12.19,73928.3,-4.03,-34.71,-35.07,0,*5E
1485536635.9,33284,12.19,73930.0,-4.05,-34.89,-35.13,0,*5D
1485536637.12,33285,12.19,73926.8,-4.03,-34.71,-34.89,0,*5F
1485536638.33,33286,12.19,73926.8,-4.03,-34.71,-34.89,0,*5C
1485536639.58,33287,12.19,73928.8,-4.05,-34.77,-35.07,0,*5A
1485536640.82,33288,12.19,73930.0,-4.03,-34.71,-35.07,0,*55
1485536642.06,33289,12.19,73928.3,-4.05,-34.89,-35.07,0,*55
1485536643.3,33290,12.19,73930.3,-4.03,-34.83,-35.01,0,*57
1485536644.55,33291,12.19,73930.0,-4.05,-34.77,-34.95,0,*57
1485536645.76,33292,12.19,73930.3,-4.03,-34.89,-35.17,0,*58
1485536646.98,33293,12.19,73928.5,-4.03,-34.71,-35.01,0,*59
1485536648.22,33294,12.19,73928.3,-4.05,-34.89,-35.07,0,*59
1485536649.49,33295,12.19,73926.8,-4.03,-34.83,-35.07,0,*54
1485536650.75,33296,12.19,73928.3,-4.03,-34.83,-35.07,0,*57
1485536651.99,33297,12.19,73930.8,-4.03,-34.65,-34.89,0,*59
1485536653.21,33298,12.19,73928.5,-4.05,-34.89,-35.13,0,*50
1485536654.42,33299,12.19,73930.5,-4.03,-34.71,-34.89,0,*52
1485536655.69,33300,12.19,73930.3,-4.03,-34.65,-34.83,0,*5C
1485536656.93,33301,12.19,73930.0,-4.03,-34.71,-35.07,0,*55
1485536658.22,33302,12.19,73930.5,-4.01,-34.83,-35.07,0,*59
1485536659.49,33303,12.19,73930.3,-4.03,-34.83,-35.07,0,*5A
1485536660.75,33304,12.19,73932.0,-4.03,-34.65,-34.83,0,*58
1485536662.01,33305,12.19,73928.5,-4.03,-34.83,-35.07,0,*5C
1485536663.26,33306,12.19,73930.3,-4.01,-34.71,-34.89,0,*57
1485536664.52,33307,12.19,73930.8,-4.01,-34.83,-34.89,0,*5B
1485536665.81,33308,12.19,73930.8,-4.01,-34.83,-35.07,0,*53
1485536667.05,33309,12.19,73930.3,-4.01,-34.89,-35.17,0,*59
1485536668.34,33310,12.19,73928.3,-4.01,-34.83,-35.07,0,*5A
1485536669.58,33311,12.19,73930.8,-4.01,-34.71,-34.89,0,*51
1485536670.85,33312,12.19,73930.5,-4.03,-34.83,-35.07,0,*5A
1485536672.05,33313,12.19,73928.8,-4.03,-34.89,-35.17,0,*50
1485536673.29,33314,12.19,73928.8,-4.05,-34.89,-35.23,0,*56
1485536674.52,33315,12.19,73930.8,-4.03,-34.89,-35.07,0,*57
1485536675.76,33316,12.19,73932.3,-4.03,-34.89,-35.07,0,*54
1485536677.02,33317,12.19,73930.8,-4.01,-34.65,-34.89,0,*52
1485536678.27,33318,12.19,73926.0,-4.03,-34.71,-35.07,0,*5D
1485536679.51,33319,12.19,73928.8,-4.03,-34.65,-34.89,0,*5E
1485536680.72,33320,12.19,73928.8,-4.03,-34.71,-34.89,0,*51
1485536681.96,33321,12.19,73930.3,-4.03,-34.83,-34.89,0,*5D
1485536683.18,33322,12.19,73926.8,-4.03,-34.71,-34.89,0,*53
1485536684.44,33323,12.19,73926.0,-4.03,-34.83,-35.07,0,*58
1485536685.68,33324,12.19,73926.8,-4.05,-34.89,-35.07,0,*53
1485536686.95,33325,12.19,73930.5,-4.03,-34.65,-34.83,0,*5B
1485536688.19,33326,12.19,73928.8,-4.05,-34.53,-34.77,0,*50
1485536689.46,33327,12.19,73928.8,-4.01,-34.65,-34.89,0,*51
1485536690.75,33328,12.19,73928.3,-4.01,-34.65,-34.83,0,*54
1485536692.04,33329,12.19,73930.5,-4.01,-34.53,-34.83,0,*50
1485536693.26,33330,12.19,73928.3,-4.03,-34.71,-34.89,0,*50
1485536694.5,33331,12.19,73930.3,-4.03,-34.83,-35.01,0,*5D
1485536695.74,33332,12.19,73930.8,-4.03,-34.83,-35.01,0,*5E
1485536696.99,33333,12.19,73930.3,-4.03,-34.83,-35.01,0,*5F
1485536698.26,33334,12.19,73928.3,-4.01,-34.83,-35.01,0,*5A
1485536699.5,33335,12.19,73930.0,-4.01,-34.71,-34.89,0,*57
1485536700.75,33336,12.19,73928.5,-4.01,-34.71,-35.01,0,*55
1485536702.0,33337,12.19,73928.8,-4.01,-34.71,-34.89,0,*55
1485536703.24,33338,12.19,73928.0,-4.01,-34.71,-34.89,0,*5A
1485536704.51,33339,12.19,73930.0,-4.01,-34.83,-35.01,0,*57
1485536705.8,33340,12.19,73928.0,-4.01,-34.65,-34.83,0,*5A
1485536707.05,33341,12.19,73928.0,-4.01,-34.71,-34.89,0,*54
1485536708.29,33342,12.19,73932.0,-4.01,-34.71,-34.89,0,*57
1485536709.58,33343,12.19,73930.0,-4.01,-34.65,-35.07,0,*54
1485536710.85,33344,12.19,73928.3,-4.01,-34.65,-34.89,0,*54
1485536712.07,33345,12.19,73932.0,-3.99,-34.47,-34.77,0,*52
1485536713.34,33346,12.19,73930.0,-4.01,-34.65,-34.89,0,*56
1485536714.59,33347,12.19,73932.8,-3.99,-34.47,-34.83,0,*5B
1485536715.88,33348,12.19,73930.3,-4.01,-34.35,-34.65,0,*5F
1485536717.1,33349,12.19,73928.8,-3.99,-34.47,-34.59,0,*52
1485536718.32,33350,12.13,73924.0,-3.99,-34.59,-34.77,0,*59
1485536719.57,33351,12.19,73928.8,-4.01,-34.71,-34.89,0,*55
1485536720.84,33352,12.19,73932.0,-4.01,-34.65,-34.77,0,*52
1485536722.09,33353,12.19,73932.3,-3.99,-34.77,-34.95,0,*5A
1485536723.36,33354,12.19,73930.5,-3.99,-34.65,-34.95,0,*5E
1485536724.6,33355,12.19,73934.5,-4.01,-34.71,-34.89,0,*51
1485536725.88,33356,12.19,73928.8,-3.99,-34.65,-34.95,0,*5C
1485536727.15,33357,12.19,73934.0,-3.99,-34.65,-34.95,0,*5D
1485536728.4,33358,12.19,73930.3,-3.99,-34.77,-34.95,0,*51
1485536729.67,33359,12.19,73930.0,-4.01,-34.83,-35.01,0,*51
1485536730.92,33360,12.19,73930.8,-3.99,-34.77,-34.95,0,*5A
1485536732.14,33361,12.19,73928.8,-3.99,-34.77,-35.13,0,*54
1485536733.36,33362,12.19,73930.3,-3.99,-34.59,-34.77,0,*58
1485536734.63,33363,12.19,73930.3,-3.99,-34.65,-34.83,0,*5D
1485536735.85,33364,12.19,73930.5,-3.99,-34.77,-35.13,0,*51
1485536737.1,33365,12.19,73930.8,-3.99,-34.77,-34.95,0,*5F
1485536738.36,33366,12.19,73930.8,-4.01,-34.83,-35.17,0,*5A
1485536739.62,33367,12.19,73930.3,-4.01,-34.89,-35.23,0,*56
1485536740.89,33368,12.19,73928.5,-3.99,-35.07,-35.41,0,*5C
1485536742.16,33369,12.19,73930.3,-4.01,-35.07,-35.47,0,*5D
1485536743.41,33370,12.19,73928.8,-4.01,-35.01,-35.47,0,*53
1485536744.68,33371,12.19,73930.0,-4.01,-35.07,-35.47,0,*54
1485536745.94,33372,12.19,73930.0,-4.01,-35.01,-35.23,0,*53
1485536747.18,33373,12.19,73930.8,-4.01,-34.89,-35.17,0,*54
1485536748.45,33374,12.19,73928.5,-4.01,-35.01,-35.35,0,*52
1485536749.7,33375,12.19,73928.5,-3.99,-34.95,-35.29,0,*54
1485536750.94,33376,12.19,73926.3,-3.99,-34.83,-35.13,0,*59
1485536752.21,33377,12.19,73926.3,-3.99,-34.65,-34.83,0,*58
1485536753.48,33378,12.19,73930.0,-4.01,-34.65,-34.89,0,*5B
1485536754.73,33379,12.19,73928.5,-4.01,-34.71,-35.01,0,*5E
1485536755.97,33380,12.19,73926.5,-4.01,-34.71,-34.89,0,*59
1485536757.24,33381,12.19,73928.8,-4.01,-34.83,-35.01,0,*54
1485536758.5,33382,12.19,73924.8,-4.01,-34.89,-35.23,0,*5D
1485536759.78,33383,12.19,73928.5,-3.99,-34.65,-34.95,0,*54
1485536761.0,33384,12.19,73928.5,-3.99,-34.77,-35.13,0,*5F
1485536762.26,33385,12.19,73928.0,-4.01,-35.01,-35.35,0,*5C
1485536763.53,33386,12.19,73930.3,-4.01,-35.01,-35.35,0,*5F
1485536764.78,33387,12.19,73924.0,-3.99,-35.01,-35.35,0,*58
1485536766.05,33388,12.19,73926.8,-4.01,-35.07,-35.47,0,*52
1485536767.32,33389,12.19,73930.0,-4.01,-35.01,-35.35,0,*50
1485536768.59,33390,12.19,73928.8,-4.01,-35.01,-35.35,0,*58
1485536769.86,33391,12.19,73926.5,-4.01,-35.07,-35.47,0,*5A
1485536771.09,33392,12.19,73928.8,-4.01,-34.89,-35.17,0,*5B
1485536772.35,33393,12.19,73926.5,-4.01,-34.89,-35.07,0,*5B
1485536773.62,33394,12.19,73928.5,-4.01,-34.83,-35.01,0,*50
1485536774.89,33395,12.19,73928.5,-3.99,-34.65,-34.83,0,*54
1485536776.16,33396,12.19,73926.8,-4.01,-34.83,-35.01,0,*52
1485536777.43,33397,12.19,73928.3,-4.01,-34.65,-34.89,0,*5A
1485536778.72,33398,12.19,73928.0,-4.01,-34.83,-35.07,0,*5A
1485536779.96,33399,12.19,73924.3,-4.01,-34.71,-35.17,0,*57
1485536781.25,33400,12.19,73930.0,-4.01,-34.65,-34.83,0,*59
1485536782.52,33401,12.19,73930.0,-4.01,-34.71,-34.83,0,*5D
1485536783.76,33402,12.19,73928.8,-4.01,-34.89,-35.17,0,*55
1485536785.03,33403,12.19,73930.5,-4.01,-34.71,-35.07,0,*52
1485536786.3,33404,12.19,73926.8,-4.01,-34.83,-35.01,0,*5E
1485536787.52,33405,12.19,73930.8,-3.99,-34.77,-35.01,0,*52
1485536788.78,33406,12.19,73928.0,-4.01,-34.89,-35.35,0,*51
1485536790.03,33407,12.19,73928.5,-4.01,-35.01,-35.17,0,*51
1485536791.27,33408,12.19,73924.3,-3.99,-34.95,-35.17,0,*54
1485536792.56,33409,12.19,73926.5,-4.01,-34.83,-35.07,0,*55
1485536793.79,33410,12.19,73926.5,-4.01,-34.89,-35.17,0,*56
1485536795.07,33411,12.19,73924.8,-4.01,-34.83,-35.01,0,*5A
1485536796.34,33412,12.19,73924.8,-4.01,-34.83,-35.01,0,*59
1485536797.61,33413,12.19,73924.8,-4.01,-34.71,-35.07,0,*53
1485536798.84,33414,12.19,73926.3,-4.01,-34.89,-35.17,0,*52
1485536800.08,33415,12.19,73930.3,-4.01,-34.89,-35.17,0,*53
1485536801.32,33416,12.19,73926.3,-3.99,-34.83,-35.17,0,*5C
1485536802.59,33417,12.19,73930.5,-4.01,-35.01,-35.35,0,*50
1485536803.83,33418,12.19,73928.5,-4.01,-35.01,-35.47,0,*5A
1485536805.09,33419,12.19,73930.5,-4.01,-34.89,-35.23,0,*58
1485536806.35,33420,12.19,73924.8,-4.01,-34.89,-35.07,0,*54
1485536807.62,33421,12.19,73930.0,-4.01,-34.89,-35.07,0,*55
1485536808.88,33422,12.19,73928.5,-3.99,-34.65,-34.83,0,*5F
1485536810.17,33423,12.19,73926.5,-4.01,-34.83,-35.23,0,*5B
1485536811.44,33424,12.19,73928.8,-4.01,-34.83,-35.17,0,*5B
1485536812.67,33425,12.19,73928.5,-4.01,-34.89,-35.17,0,*50
1485536813.9,33426,12.19,73928.8,-3.99,-34.71,-35.01,0,*55
1485536815.14,33427,12.19,73930.0,-4.01,-34.71,-34.89,0,*53
1485536816.39,33428,12.19,73930.8,-3.99,-34.47,-34.83,0,*55
1485536817.68,33429,12.19,73926.8,-4.01,-34.83,-35.07,0,*57
1485536818.94,33430,12.19,73926.5,-4.01,-35.01,-35.35,0,*55
1485536820.16,33431,12.19,73926.3,-4.03,-35.01,-35.17,0,*56
1485536821.42,33432,12.19,73924.3,-4.01,-34.89,-35.07,0,*57
1485536822.71,33433,12.19,73926.5,-4.01,-34.83,-35.07,0,*5C
1485536823.98,33434,12.19,73930.8,-4.01,-34.83,-35.17,0,*5A
1485536825.27,33435,12.19,73928.5,-4.01,-34.83,-35.07,0,*5A
1485536826.53,33436,12.19,73926.8,-4.01,-34.83,-35.17,0,*58
1485536827.8,33437,12.19,73926.5,-3.99,-34.95,-35.41,0,*5B
1485536829.05,33438,12.19,73930.5,-4.01,-34.89,-35.01,0,*5B
1485536830.34,33439,12.19,73924.3,-4.01,-34.83,-35.07,0,*56
1485536831.58,33440,12.19,73924.0,-4.03,-34.83,-35.01,0,*5C
1485536832.85,33441,12.19,73926.5,-4.01,-35.01,-35.23,0,*54
1485536834.11,33442,12.19,73928.0,-4.01,-35.01,-35.35,0,*50
1485536835.35,33443,12.19,73928.3,-4.01,-34.89,-35.17,0,*50
1485536836.62,33444,12.19,73926.5,-4.01,-34.71,-35.07,0,*51
1485536837.89,33445,12.19,73926.0,-4.01,-34.65,-34.89,0,*52
1485536839.13,33446,12.19,73930.5,-4.01,-34.71,-34.89,0,*54
1485536840.36,33447,12.19,73930.0,-4.01,-34.89,-35.17,0,*54
1485536841.6,33448,12.19,73928.3,-4.01,-34.89,-35.17,0,*5B
1485536842.83,33449,12.19,73926.5,-4.03,-34.89,-35.07,0,*59
1485536844.07,33450,12.19,73924.5,-4.03,-34.83,-35.17,0,*5A
1485536845.31,33451,12.19,73930.0,-4.03,-34.71,-35.23,0,*51
1485536846.55,33452,12.19,73928.0,-4.03,-34.89,-35.23,0,*55
1485536847.8,33453,12.19,73924.8,-4.01,-34.89,-35.23,0,*56
1485536849.01,33454,12.19,73926.5,-4.03,-34.89,-35.17,0,*54
1485536850.26,33455,12.19,73926.0,-4.03,-34.83,-35.01,0,*58
1485536851.5,33456,12.19,73928.5,-4.03,-34.65,-34.89,0,*52
1485536852.79,33457,12.19,73926.0,-4.01,-34.83,-35.07,0,*5E
1485536854.05,33458,12.19,73928.3,-4.01,-34.83,-35.17,0,*50
1485536855.32,33459,12.19,73926.8,-4.01,-34.83,-35.17,0,*51
1485536856.56,33460,12.19,73928.0,-4.03,-34.65,-34.89,0,*57
1485536857.8,33461,12.19,73928.0,-4.03,-34.83,-35.01,0,*5F
1485536859.09,33462,12.19,73926.0,-4.01,-34.65,-34.83,0,*5D
1485536860.38,33463,12.19,73926.8,-4.01,-34.83,-35.07,0,*59
1485536861.63,33464,12.19,73928.5,-4.01,-34.71,-34.89,0,*54
1485536862.87,33465,12.19,73926.8,-4.01,-34.71,-34.89,0,*55
1485536864.11,33466,12.19,73926.0,-4.03,-34.53,-34.71,0,*53
1485536865.34,33467,12.19,73926.5,-4.03,-34.71,-35.01,0,*54
1485536866.57,33468,12.19,73928.5,-4.03,-34.89,-35.07,0,*5A
1485536867.82,33469,12.19,73928.5,-4.01,-34.71,-35.01,0,*58
1485536869.07,33470,12.19,73924.8,-4.01,-34.71,-35.01,0,*50
1485536870.32,33471,12.19,73930.0,-4.01,-34.59,-34.77,0,*5B
1485536871.59,33472,12.19,73928.0,-4.01,-34.83,-35.01,0,*5F
1485536872.83,33473,12.19,73932.0,-3.99,-34.95,-35.17,0,*58
1485536874.08,33474,12.19,73926.8,-3.99,-34.77,-34.95,0,*58
1485536875.32,33475,12.19,73930.3,-4.01,-34.71,-34.89,0,*54
1485536876.57,33476,12.13,73924.3,-4.01,-34.71,-35.01,0,*56
1485536877.81,33477,12.19,73926.3,-4.01,-34.71,-34.89,0,*56
1485536879.08,33478,12.13,73924.8,-4.01,-34.53,-34.71,0,*5E
1485536880.35,33479,12.19,73926.8,-4.01,-34.65,-34.89,0,*5D
1485536881.6,33480,12.19,73930.8,-3.99,-34.59,-34.65,0,*50
1485536882.87,33481,12.19,73928.3,-4.01,-34.83,-35.01,0,*53
1485536884.11,33482,12.19,73928.3,-4.01,-34.59,-34.89,0,*56
1485536885.39,33483,12.19,73928.3,-3.99,-34.65,-34.95,0,*53
1485536886.64,33484,12.19,73928.3,-3.99,-34.65,-35.01,0,*58
1485536887.91,33485,12.19,73926.5,-4.01,-34.71,-35.07,0,*5C
1485536889.17,33486,12.19,73926.8,-4.01,-34.89,-35.23,0,*5E
1485536890.46,33487,12.19,73926.0,-4.01,-34.83,-35.07,0,*53
1485536891.75,33488,12.19,73928.3,-4.01,-34.83,-35.07,0,*5C
1485536893.02,33489,12.19,73924.3,-4.01,-34.65,-35.01,0,*53
1485536894.25,33490,12.19,73928.3,-3.99,-34.77,-35.01,0,*5E
1485536895.47,33491,12.19,73930.5,-3.99,-34.77,-35.01,0,*5F
1485536896.76,33492,12.19,73928.0,-4.01,-34.83,-35.07,0,*57
1485536898.01,33493,12.19,73926.0,-4.01,-34.71,-35.01,0,*5D
1485536899.28,33494,12.19,73924.0,-4.01,-34.83,-35.17,0,*50
1485536900.55,33495,12.13,73926.3,-4.01,-34.83,-35.01,0,*56